Time,TemperatureF,DewpointF,PressureIn,WindDirection,WindDirectionDegrees,WindSpeedMPH,WindSpeedGustMPH,Humidity,HourlyPrecipIn,Conditions,Clouds,dailyrainin,SolarRadiationWatts/m^2,SoftwareType,DateUTC
2013-09-05 00:02:00,72.7,53.5,29.77,SSW,211,1.6,3.4,51,0.00,BKN,BKN,0.00,0.0,WeatherDisplay:10.37,2013-09-05 06:02:00,
2013-09-05 00:07:00,72.6,53.4,29.75,SSW,211,0.0,0.0,51,0.00,BKN,BKN,0.00,0.0,WeatherDisplay:10.37,2013-09-05 06:07:00,
2013-09-05 00:12:00,72.5,53.9,29.76,SSW,211,0.0,0.0,52,0.00,BKN,BKN,0.00,0.0,WeatherDisplay:10.37,2013-09-05 06:12:00,
2013-09-05 00:17:00,72.3,53.7,29.77,SSW,210,0.0,0.0,52,0.00,BKN,BKN,0.00,0.0,WeatherDisplay:10.37,2013-09-05 06:17:00,
2013-09-05 00:22:00,72.2,54.1,29.77,SSW,211,0.0,0.0,53,0.00,BKN,BKN,0.00,0.0,WeatherDisplay:10.37,2013-09-05 06:22:00,
2013-09-05 00:27:00,72.0,53.9,29.77,SSW,211,0.0,0.0,53,0.00,BKN,BKN,0.00,0.0,WeatherDisplay:10.37,2013-09-05 06:27:00,
2013-09-05 00:32:00,71.9,53.8,29.78,SSW,211,0.0,0.0,53,0.00,BKN,BKN,0.00,0.0,WeatherDisplay:10.37,2013-09-05 06:32:00,
2013-09-05 00:37:00,71.5,53.5,29.78,SSW,210,0.5,2.3,53,0.00,BKN,BKN,0.00,0.0,WeatherDisplay:10.37,2013-09-05 06:37:00,
2013-09-05 00:42:00,71.3,53.8,29.78,SSW,210,0.0,0.0,54,0.00,BKN,BKN,0.00,0.0,WeatherDisplay:10.37,2013-09-05 06:42:00,
2013-09-05 00:47:00,70.9,53.9,29.78,SSW,211,0.0,0.0,55,0.00,BKN,BKN,0.00,0.0,WeatherDisplay:10.37,2013-09-05 06:47:00,
2013-09-05 00:52:00,70.6,53.6,29.78,SSW,210,0.0,0.0,55,0.00,BKN,BKN,0.00,0.0,WeatherDisplay:10.37,2013-09-05 06:52:00,
2013-09-05 00:57:00,70.4,54.0,29.79,SSW,211,0.0,0.0,56,0.00,BKN,BKN,0.00,0.0,WeatherDisplay:10.37,2013-09-05 06:57:00,
2013-09-05 01:02:00,70.0,54.1,29.80,SSW,211,0.0,0.0,57,0.00,SCT,SCT,0.00,0.0,WeatherDisplay:10.37,2013-09-05 07:02:00,
2013-09-05 01:07:00,69.7,53.8,29.77,SSW,211,0.0,0.0,57,0.00,SCT,SCT,0.00,0.0,WeatherDisplay:10.37,2013-09-05 07:07:00,
2013-09-05 01:12:00,69.4,54.0,29.78,SSW,210,0.0,0.0,58,0.00,SCT,SCT,0.00,0.0,WeatherDisplay:10.37,2013-09-05 07:12:00,
2013-09-05 01:17:00,69.1,53.7,29.78,SSW,211,0.0,0.0,58,0.00,SCT,SCT,0.00,0.0,WeatherDisplay:10.37,2013-09-05 07:17:00,
2013-09-05 01:22:00,68.9,53.5,29.78,SSW,211,0.0,0.0,58,0.00,SCT,SCT,0.00,0.0,WeatherDisplay:10.37,2013-09-05 07:22:00,
2013-09-05 01:27:00,68.7,53.8,29.78,SSW,211,0.0,0.0,59,0.00,SCT,SCT,0.00,0.0,WeatherDisplay:10.37,2013-09-05 07:27:00,
2013-09-05 01:32:00,68.5,53.6,29.78,SSW,211,0.0,0.0,59,0.00,SCT,SCT,0.00,0.0,WeatherDisplay:10.37,2013-09-05 07:32:00,
2013-09-05 01:37:00,68.4,53.5,29.78,SSW,211,0.0,0.0,59,0.00,SCT,SCT,0.00,0.0,WeatherDisplay:10.37,2013-09-05 07:37:00,
2013-09-05 01:42:00,68.2,53.8,29.78,SSW,211,0.0,0.0,60,0.00,SCT,SCT,0.00,0.0,WeatherDisplay:10.37,2013-09-05 07:42:00,
2013-09-05 01:47:00,68.1,54.1,29.78,SSW,210,0.0,0.0,61,0.00,SCT,SCT,0.00,0.0,WeatherDisplay:10.37,2013-09-05 07:47:00,
2013-09-05 01:52:00,67.9,54.0,29.78,SSW,211,0.0,0.0,61,0.00,SCT,SCT,0.00,0.0,WeatherDisplay:10.37,2013-09-05 07:52:00,
2013-09-05 01:57:00,67.8,54.3,29.78,SSW,211,0.0,0.0,62,0.00,SCT,SCT,0.00,0.0,WeatherDisplay:10.37,2013-09-05 07:57:00,
2013-09-05 02:02:00,67.6,54.1,29.78,SSW,211,0.0,0.0,62,0.00,SCT,SCT,0.00,0.0,WeatherDisplay:10.37,2013-09-05 08:02:00,
2013-09-05 02:07:00,67.5,54.0,29.78,SSW,211,0.0,0.0,62,0.00,SCT,SCT,0.00,0.0,WeatherDisplay:10.37,2013-09-05 08:07:00,
2013-09-05 02:12:00,67.3,53.8,29.79,SSW,210,0.0,0.0,62,0.00,SCT,SCT,0.00,0.0,WeatherDisplay:10.37,2013-09-05 08:12:00,
2013-09-05 02:17:00,67.2,54.2,29.79,SSW,211,0.0,0.0,63,0.00,SCT,SCT,0.00,0.0,WeatherDisplay:10.37,2013-09-05 08:17:00,
2013-09-05 02:22:00,67.1,54.1,29.79,SSW,211,0.0,0.0,63,0.00,SCT,SCT,0.00,0.0,WeatherDisplay:10.37,2013-09-05 08:22:00,
2013-09-05 02:27:00,67.1,54.1,29.79,SSW,211,0.0,0.0,63,0.00,SCT,SCT,0.00,0.0,WeatherDisplay:10.37,2013-09-05 08:27:00,
2013-09-05 02:32:00,67.0,54.4,29.79,SSW,210,0.0,0.0,64,0.00,SCT,SCT,0.00,0.0,WeatherDisplay:10.37,2013-09-05 08:32:00,
2013-09-05 02:37:00,66.9,54.3,29.79,SSW,211,0.0,0.0,64,0.00,SCT,SCT,0.00,0.0,WeatherDisplay:10.37,2013-09-05 08:37:00,
2013-09-05 02:42:00,66.8,54.2,29.79,SSW,211,0.0,0.0,64,0.00,SCT,SCT,0.00,0.0,WeatherDisplay:10.37,2013-09-05 08:42:00,
2013-09-05 02:47:00,66.7,54.1,29.79,SSW,211,0.0,0.0,64,0.00,SCT,SCT,0.00,0.0,WeatherDisplay:10.37,2013-09-05 08:47:00,
2013-09-05 02:52:00,66.5,53.9,29.79,SSW,210,0.0,0.0,64,0.00,SCT,SCT,0.00,0.0,WeatherDisplay:10.37,2013-09-05 08:52:00,
2013-09-05 02:57:00,66.4,53.8,29.79,SSW,211,0.0,0.0,64,0.00,SCT,SCT,0.00,0.0,WeatherDisplay:10.37,2013-09-05 08:57:00,
2013-09-05 03:02:00,66.3,53.8,29.79,SSW,211,0.0,0.0,64,0.00,SCT,SCT,0.00,0.0,WeatherDisplay:10.37,2013-09-05 09:02:00,
2013-09-05 03:07:00,66.2,53.7,29.80,SSW,211,0.3,1.1,64,0.00,SCT,SCT,0.00,0.0,WeatherDisplay:10.37,2013-09-05 09:07:00,
2013-09-05 03:12:00,66.2,53.7,29.80,SSW,211,0.0,0.0,64,0.00,SCT,SCT,0.00,0.0,WeatherDisplay:10.37,2013-09-05 09:12:00,
2013-09-05 03:17:00,66.2,53.2,29.80,SSW,211,0.4,2.3,63,0.00,SCT,SCT,0.00,0.0,WeatherDisplay:10.37,2013-09-05 09:17:00,
2013-09-05 03:22:00,66.2,53.7,29.80,SSW,210,0.0,1.1,64,0.00,SCT,SCT,0.00,0.0,WeatherDisplay:10.37,2013-09-05 09:22:00,
2013-09-05 03:27:00,66.3,53.8,29.81,SSW,211,0.0,0.0,64,0.00,SCT,SCT,0.00,0.0,WeatherDisplay:10.37,2013-09-05 09:27:00,
2013-09-05 03:32:00,66.4,53.4,29.80,SSW,211,0.8,3.0,63,0.00,SCT,SCT,0.00,0.0,WeatherDisplay:10.37,2013-09-05 09:32:00,
2013-09-05 03:37:00,66.5,53.1,29.80,SSW,210,0.4,2.3,62,0.00,SCT,SCT,0.00,0.0,WeatherDisplay:10.37,2013-09-05 09:37:00,
2013-09-05 03:42:00,66.7,52.8,29.80,SW,221,0.1,3.4,61,0.00,SCT,SCT,0.00,0.0,WeatherDisplay:10.37,2013-09-05 09:42:00,
2013-09-05 03:47:00,66.8,52.9,29.80,SW,222,0.0,1.1,61,0.00,SCT,SCT,0.00,0.0,WeatherDisplay:10.37,2013-09-05 09:47:00,
2013-09-05 03:52:00,67.0,53.1,29.80,SW,222,0.0,0.0,61,0.00,SCT,SCT,0.00,0.0,WeatherDisplay:10.37,2013-09-05 09:52:00,
2013-09-05 03:57:00,67.0,53.5,29.80,SW,222,0.0,0.0,62,0.00,SCT,SCT,0.00,0.0,WeatherDisplay:10.37,2013-09-05 09:57:00,
2013-09-05 04:02:00,67.0,53.5,29.80,SW,222,0.6,2.3,62,0.00,SCT,SCT,0.00,0.0,WeatherDisplay:10.37,2013-09-05 10:02:00,
2013-09-05 04:07:00,66.8,53.4,29.82,SW,222,0.0,1.1,62,0.00,SCT,SCT,0.00,0.0,WeatherDisplay:10.37,2013-09-05 10:07:00,
2013-09-05 04:12:00,66.7,53.3,29.82,SW,222,0.0,0.0,62,0.00,SCT,SCT,0.00,0.0,WeatherDisplay:10.37,2013-09-05 10:12:00,
2013-09-05 04:17:00,66.5,53.5,29.82,SW,222,0.3,2.3,63,0.00,SCT,SCT,0.00,0.0,WeatherDisplay:10.37,2013-09-05 10:17:00,
2013-09-05 04:22:00,66.3,53.3,29.82,SW,222,0.6,2.3,63,0.00,SCT,SCT,0.00,0.0,WeatherDisplay:10.37,2013-09-05 10:22:00,
2013-09-05 04:27:00,66.1,53.1,29.82,SW,222,0.0,0.0,63,0.00,SCT,SCT,0.00,0.0,WeatherDisplay:10.37,2013-09-05 10:27:00,
2013-09-05 04:32:00,65.9,53.4,29.82,SW,222,0.0,0.0,64,0.00,SCT,SCT,0.00,0.0,WeatherDisplay:10.37,2013-09-05 10:32:00,
2013-09-05 04:37:00,65.8,52.9,29.83,SW,222,0.0,0.0,63,0.00,SCT,SCT,0.00,0.0,WeatherDisplay:10.37,2013-09-05 10:37:00,
2013-09-05 04:42:00,65.6,53.1,29.83,SW,222,0.0,0.0,64,0.00,SCT,SCT,0.00,0.0,WeatherDisplay:10.37,2013-09-05 10:42:00,
2013-09-05 04:47:00,65.5,53.0,29.82,SW,222,0.0,0.0,64,0.00,SCT,SCT,0.00,0.0,WeatherDisplay:10.37,2013-09-05 10:47:00,
2013-09-05 04:52:00,65.3,53.2,29.83,SW,222,0.0,0.0,65,0.00,SCT,SCT,0.00,0.0,WeatherDisplay:10.37,2013-09-05 10:52:00,
2013-09-05 04:57:00,65.2,53.1,29.84,SW,222,1.0,2.3,65,0.00,SCT,SCT,0.00,0.0,WeatherDisplay:10.37,2013-09-05 10:57:00,
2013-09-05 05:02:00,65.0,53.4,29.83,SW,222,0.0,0.0,66,0.00,SCT,SCT,0.00,0.0,WeatherDisplay:10.37,2013-09-05 11:02:00,
2013-09-05 05:07:00,64.9,53.3,29.85,SW,222,0.0,0.0,66,0.00,SCT,SCT,0.00,0.0,WeatherDisplay:10.37,2013-09-05 11:07:00,
2013-09-05 05:12:00,64.8,53.2,29.85,SW,222,0.0,0.0,66,0.00,SCT,SCT,0.00,0.0,WeatherDisplay:10.37,2013-09-05 11:12:00,
2013-09-05 05:17:00,64.7,53.1,29.86,SW,222,0.0,0.0,66,0.00,SCT,SCT,0.00,0.0,WeatherDisplay:10.37,2013-09-05 11:17:00,
2013-09-05 05:22:00,64.6,53.0,29.86,SW,222,0.0,0.0,66,0.00,SCT,SCT,0.00,0.0,WeatherDisplay:10.37,2013-09-05 11:22:00,
2013-09-05 05:27:00,64.5,52.9,29.86,SW,222,0.0,0.0,66,0.00,SCT,SCT,0.00,0.0,WeatherDisplay:10.37,2013-09-05 11:27:00,
2013-09-05 05:32:00,64.4,52.8,29.86,SW,222,0.0,0.0,66,0.00,SCT,SCT,0.00,0.0,WeatherDisplay:10.37,2013-09-05 11:32:00,
2013-09-05 05:37:00,64.3,53.1,29.86,SW,222,0.0,0.0,67,0.00,SCT,SCT,0.00,0.0,WeatherDisplay:10.37,2013-09-05 11:37:00,
2013-09-05 05:42:00,64.3,53.1,29.86,SW,222,0.0,0.0,67,0.00,SCT,SCT,0.00,0.0,WeatherDisplay:10.37,2013-09-05 11:42:00,
2013-09-05 05:47:00,64.2,53.4,29.86,SW,222,0.0,0.0,68,0.00,SCT,SCT,0.00,0.0,WeatherDisplay:10.37,2013-09-05 11:47:00,
2013-09-05 05:52:00,64.1,53.3,29.86,SW,222,0.0,0.0,68,0.00,SCT,SCT,0.00,0.0,WeatherDisplay:10.37,2013-09-05 11:52:00,
2013-09-05 05:57:00,64.1,53.3,29.86,SW,222,0.0,0.0,68,0.00,SCT,SCT,0.00,0.0,WeatherDisplay:10.37,2013-09-05 11:57:00,
2013-09-05 06:02:00,64.0,53.2,29.87,SW,222,0.0,0.0,68,0.00,SCT,SCT,0.00,0.0,WeatherDisplay:10.37,2013-09-05 12:02:00,
2013-09-05 06:07:00,63.9,53.5,29.88,SW,222,0.0,0.0,69,0.00,SCT,SCT,0.00,0.0,WeatherDisplay:10.37,2013-09-05 12:07:00,
2013-09-05 06:12:00,63.9,53.9,29.88,SW,222,0.0,0.0,70,0.00,SCT,SCT,0.00,0.0,WeatherDisplay:10.37,2013-09-05 12:12:00,
2013-09-05 06:17:00,63.9,53.9,29.88,SW,222,0.0,0.0,70,0.00,SCT,SCT,0.00,0.0,WeatherDisplay:10.37,2013-09-05 12:17:00,
2013-09-05 06:22:00,63.8,54.2,29.88,SW,222,0.0,0.0,71,0.00,SCT,SCT,0.00,0.0,WeatherDisplay:10.37,2013-09-05 12:22:00,
2013-09-05 06:27:00,63.8,54.2,29.88,SW,222,0.0,0.0,71,0.00,SCT,SCT,0.00,0.0,WeatherDisplay:10.37,2013-09-05 12:27:00,
2013-09-05 06:32:00,63.7,54.1,29.88,SW,222,0.0,0.0,71,0.00,SCT,SCT,0.00,0.0,WeatherDisplay:10.37,2013-09-05 12:32:00,
2013-09-05 06:37:00,63.7,54.1,29.88,SW,222,0.0,0.0,71,0.00,SCT,SCT,0.00,0.0,WeatherDisplay:10.37,2013-09-05 12:37:00,
2013-09-05 06:42:00,63.6,54.0,29.89,SW,222,0.0,0.0,71,0.00,SCT,SCT,0.00,0.0,WeatherDisplay:10.37,2013-09-05 12:42:00,
2013-09-05 06:47:00,63.5,53.9,29.89,SW,222,0.0,0.0,71,0.00,SCT,SCT,0.00,5.0,WeatherDisplay:10.37,2013-09-05 12:47:00,
2013-09-05 06:52:00,63.5,54.3,29.89,SW,222,0.0,0.0,72,0.00,SCT,SCT,0.00,7.0,WeatherDisplay:10.37,2013-09-05 12:52:00,
2013-09-05 06:57:00,63.5,54.3,29.89,SW,222,0.0,0.0,72,0.00,SCT,SCT,0.00,9.0,WeatherDisplay:10.37,2013-09-05 12:57:00,
2013-09-05 07:02:00,63.4,54.2,29.90,SW,222,0.0,0.0,72,0.00,SCT,SCT,0.00,9.0,WeatherDisplay:10.37,2013-09-05 13:02:00,
2013-09-05 07:07:00,63.4,54.6,29.91,SW,222,0.0,0.0,73,0.00,SCT,SCT,0.00,19.0,WeatherDisplay:10.37,2013-09-05 13:07:00,
2013-09-05 07:12:00,63.4,54.6,29.91,SW,222,0.0,0.0,73,0.00,SCT,SCT,0.00,23.0,WeatherDisplay:10.37,2013-09-05 13:12:00,
2013-09-05 07:17:00,63.4,54.6,29.91,SW,222,0.0,0.0,73,0.00,SCT,SCT,0.00,25.0,WeatherDisplay:10.37,2013-09-05 13:17:00,
2013-09-05 07:22:00,63.4,54.6,29.91,SW,222,0.0,0.0,73,0.00,SCT,SCT,0.00,26.0,WeatherDisplay:10.37,2013-09-05 13:22:00,
2013-09-05 07:27:00,63.4,54.6,29.91,SW,222,0.0,0.0,73,0.00,SCT,SCT,0.00,28.0,WeatherDisplay:10.37,2013-09-05 13:27:00,
2013-09-05 07:32:00,63.4,54.6,29.91,SW,222,0.0,0.0,73,0.00,SCT,SCT,0.00,32.0,WeatherDisplay:10.37,2013-09-05 13:32:00,
2013-09-05 07:37:00,63.5,54.7,29.90,SW,222,0.0,0.0,73,0.00,SCT,SCT,0.00,35.0,WeatherDisplay:10.37,2013-09-05 13:37:00,
2013-09-05 07:42:00,63.6,54.4,29.90,SW,222,0.0,0.0,72,0.00,SCT,SCT,0.00,40.0,WeatherDisplay:10.37,2013-09-05 13:42:00,
2013-09-05 07:47:00,63.7,54.5,29.90,SW,222,0.0,0.0,72,0.00,SCT,SCT,0.00,44.0,WeatherDisplay:10.37,2013-09-05 13:47:00,
2013-09-05 07:52:00,63.8,54.6,29.90,SW,222,0.0,0.0,72,0.00,SCT,SCT,0.00,47.0,WeatherDisplay:10.37,2013-09-05 13:52:00,
2013-09-05 07:57:00,63.9,54.7,29.90,SW,222,0.0,0.0,72,0.00,SCT,SCT,0.00,51.0,WeatherDisplay:10.37,2013-09-05 13:57:00,
2013-09-05 08:02:00,64.1,54.5,29.90,SW,222,0.0,0.0,71,0.00,BKN,BKN,0.00,54.0,WeatherDisplay:10.37,2013-09-05 14:02:00,
2013-09-05 08:07:00,64.3,54.7,29.91,SW,222,0.0,0.0,71,0.00,BKN,BKN,0.00,58.0,WeatherDisplay:10.37,2013-09-05 14:07:00,
2013-09-05 08:12:00,64.5,54.5,29.90,SW,222,0.0,0.0,70,0.00,BKN,BKN,0.00,65.0,WeatherDisplay:10.37,2013-09-05 14:12:00,
2013-09-05 08:17:00,64.7,54.7,29.90,SW,222,0.0,1.1,70,0.00,BKN,BKN,0.00,67.0,WeatherDisplay:10.37,2013-09-05 14:17:00,
2013-09-05 08:22:00,64.9,54.1,29.90,SW,222,0.0,0.0,68,0.00,BKN,BKN,0.00,70.0,WeatherDisplay:10.37,2013-09-05 14:22:00,
2013-09-05 08:27:00,65.1,53.9,29.90,SW,222,0.0,0.0,67,0.00,BKN,BKN,0.00,79.0,WeatherDisplay:10.37,2013-09-05 14:27:00,
2013-09-05 08:32:00,65.4,54.2,29.90,SW,222,0.4,2.3,67,0.00,BKN,BKN,0.00,93.0,WeatherDisplay:10.37,2013-09-05 14:32:00,
2013-09-05 08:37:00,65.8,54.1,29.90,SW,222,0.6,3.4,66,0.00,BKN,BKN,0.00,104.0,WeatherDisplay:10.37,2013-09-05 14:37:00,
2013-09-05 08:42:00,66.1,54.0,29.90,SW,222,0.0,0.0,65,0.00,BKN,BKN,0.00,114.0,WeatherDisplay:10.37,2013-09-05 14:42:00,
2013-09-05 08:47:00,66.4,54.3,29.89,SW,222,0.0,1.1,65,0.00,BKN,BKN,0.00,128.0,WeatherDisplay:10.37,2013-09-05 14:47:00,
2013-09-05 08:52:00,66.8,54.7,29.88,SW,222,0.0,0.0,65,0.00,BKN,BKN,0.00,142.0,WeatherDisplay:10.37,2013-09-05 14:52:00,
2013-09-05 08:57:00,67.1,54.5,29.88,SW,222,0.0,0.0,64,0.00,BKN,BKN,0.00,156.0,WeatherDisplay:10.37,2013-09-05 14:57:00,
2013-09-05 09:02:00,67.4,54.8,29.88,SW,222,0.0,0.0,64,0.00,BKN,BKN,0.00,167.0,WeatherDisplay:10.37,2013-09-05 15:02:00,
2013-09-05 09:07:00,67.6,54.6,29.89,SW,222,0.0,0.0,63,0.00,BKN,BKN,0.00,181.0,WeatherDisplay:10.37,2013-09-05 15:07:00,
2013-09-05 09:12:00,68.2,55.6,29.89,SW,222,0.0,0.0,64,0.00,BKN,BKN,0.00,197.0,WeatherDisplay:10.37,2013-09-05 15:12:00,
2013-09-05 09:17:00,68.8,54.8,29.88,SW,222,1.1,3.0,61,0.00,BKN,BKN,0.00,209.0,WeatherDisplay:10.37,2013-09-05 15:17:00,
2013-09-05 09:22:00,69.2,53.8,29.88,SSW,200,1.1,3.4,58,0.00,BKN,BKN,0.00,223.0,WeatherDisplay:10.37,2013-09-05 15:22:00,
2013-09-05 09:27:00,69.5,54.1,29.87,SSW,199,0.3,2.3,58,0.00,BKN,BKN,0.00,237.0,WeatherDisplay:10.37,2013-09-05 15:27:00,
2013-09-05 09:32:00,69.9,54.0,29.87,SSW,200,0.9,2.3,57,0.00,BKN,BKN,0.00,236.0,WeatherDisplay:10.37,2013-09-05 15:32:00,
2013-09-05 09:37:00,70.3,54.3,29.87,SSW,199,0.5,2.3,57,0.00,BKN,BKN,0.00,230.0,WeatherDisplay:10.37,2013-09-05 15:37:00,
2013-09-05 09:42:00,70.6,54.6,29.87,SSE,168,0.3,5.0,57,0.00,BKN,BKN,0.00,236.0,WeatherDisplay:10.37,2013-09-05 15:42:00,
2013-09-05 09:47:00,70.9,54.9,29.87,SSE,168,0.6,2.3,57,0.00,BKN,BKN,0.00,257.0,WeatherDisplay:10.37,2013-09-05 15:47:00,
2013-09-05 09:52:00,71.3,54.8,29.87,SSE,168,2.3,3.4,56,0.00,BKN,BKN,0.00,464.0,WeatherDisplay:10.37,2013-09-05 15:52:00,
2013-09-05 09:57:00,71.8,54.3,29.86,SSE,150,1.6,3.4,54,0.00,BKN,BKN,0.00,603.0,WeatherDisplay:10.37,2013-09-05 15:57:00,
2013-09-05 10:02:00,72.8,55.2,29.86,SSE,157,0.9,3.4,54,0.00,BKN,BKN,0.00,559.0,WeatherDisplay:10.37,2013-09-05 16:02:00,
2013-09-05 10:07:00,73.6,54.4,29.86,SE,134,2.5,5.8,51,0.00,BKN,BKN,0.00,772.0,WeatherDisplay:10.37,2013-09-05 16:07:00,
2013-09-05 10:12:00,74.4,54.5,29.86,SE,145,3.4,6.9,50,0.00,BKN,BKN,0.00,812.0,WeatherDisplay:10.37,2013-09-05 16:12:00,
2013-09-05 10:17:00,75.0,54.5,29.85,SE,145,2.9,5.8,49,0.00,BKN,BKN,0.00,807.0,WeatherDisplay:10.37,2013-09-05 16:17:00,
2013-09-05 10:22:00,75.4,54.9,29.85,South,186,2.2,5.0,49,0.00,BKN,BKN,0.00,802.0,WeatherDisplay:10.37,2013-09-05 16:22:00,
2013-09-05 10:27:00,75.9,55.4,29.85,South,181,0.3,3.4,49,0.00,BKN,BKN,0.00,791.0,WeatherDisplay:10.37,2013-09-05 16:27:00,
2013-09-05 10:32:00,76.9,55.7,29.83,ESE,103,3.0,4.6,48,0.00,BKN,BKN,0.00,786.0,WeatherDisplay:10.37,2013-09-05 16:32:00,
2013-09-05 10:37:00,77.3,55.5,29.84,SSE,150,2.6,4.6,47,0.00,BKN,BKN,0.00,786.0,WeatherDisplay:10.37,2013-09-05 16:37:00,
2013-09-05 10:42:00,77.4,56.2,29.83,SSE,158,0.3,2.3,48,0.00,BKN,BKN,0.00,793.0,WeatherDisplay:10.37,2013-09-05 16:42:00,
2013-09-05 10:47:00,78.1,56.2,29.83,SE,127,1.9,3.4,47,0.00,BKN,BKN,0.00,786.0,WeatherDisplay:10.37,2013-09-05 16:47:00,
2013-09-05 10:52:00,78.8,56.3,29.81,SE,133,1.7,4.6,46,0.00,BKN,BKN,0.00,786.0,WeatherDisplay:10.37,2013-09-05 16:52:00,
2013-09-05 10:57:00,79.2,56.0,29.82,SE,144,0.9,3.4,45,0.00,BKN,BKN,0.00,751.0,WeatherDisplay:10.37,2013-09-05 16:57:00,
2013-09-05 11:02:00,79.2,56.0,29.82,SSE,149,0.5,2.0,45,0.00,BKN,BKN,0.00,814.0,WeatherDisplay:10.37,2013-09-05 17:02:00,
2013-09-05 11:07:00,79.6,56.4,29.83,SSE,149,0.9,3.4,45,0.00,BKN,BKN,0.00,833.0,WeatherDisplay:10.37,2013-09-05 17:07:00,
2013-09-05 11:12:00,80.7,56.8,29.81,SSW,203,2.1,4.6,44,0.00,BKN,BKN,0.00,865.0,WeatherDisplay:10.37,2013-09-05 17:12:00,
2013-09-05 11:17:00,81.1,57.7,29.81,SSW,197,0.0,1.1,45,0.00,BKN,BKN,0.00,817.0,WeatherDisplay:10.37,2013-09-05 17:17:00,
2013-09-05 11:22:00,81.7,55.7,29.81,SSW,198,2.6,4.6,41,0.00,BKN,BKN,0.00,791.0,WeatherDisplay:10.37,2013-09-05 17:22:00,
2013-09-05 11:27:00,82.0,56.6,29.81,SSW,207,1.3,5.0,42,0.00,BKN,BKN,0.00,598.0,WeatherDisplay:10.37,2013-09-05 17:27:00,
2013-09-05 11:32:00,82.0,56.0,29.81,SSW,203,3.9,5.8,41,0.00,BKN,BKN,0.00,921.0,WeatherDisplay:10.37,2013-09-05 17:32:00,
2013-09-05 11:37:00,82.2,56.2,29.81,South,189,1.4,3.4,41,0.00,BKN,BKN,0.00,459.0,WeatherDisplay:10.37,2013-09-05 17:37:00,
2013-09-05 11:42:00,82.7,56.6,29.79,SSE,167,0.6,3.0,41,0.00,BKN,BKN,0.00,573.0,WeatherDisplay:10.37,2013-09-05 17:42:00,
2013-09-05 11:47:00,83.3,57.8,29.79,South,169,0.1,1.1,42,0.00,BKN,BKN,0.00,1021.0,WeatherDisplay:10.37,2013-09-05 17:47:00,
2013-09-05 11:52:00,84.3,55.9,29.79,South,169,0.0,0.0,38,0.00,BKN,BKN,0.00,612.0,WeatherDisplay:10.37,2013-09-05 17:52:00,
2013-09-05 11:57:00,85.4,56.2,29.78,SSE,167,0.2,1.1,37,0.00,BKN,BKN,0.00,1060.0,WeatherDisplay:10.37,2013-09-05 17:57:00,
2013-09-05 12:02:00,86.7,55.8,29.76,ESE,115,0.7,3.4,35,0.00,SCT,SCT,0.00,1041.0,WeatherDisplay:10.37,2013-09-05 18:02:00,
2013-09-05 12:07:00,87.2,56.2,29.78,SE,126,1.1,3.4,35,0.00,SCT,SCT,0.00,1028.0,WeatherDisplay:10.37,2013-09-05 18:07:00,
2013-09-05 12:12:00,87.2,54.6,29.79,SE,125,0.1,1.1,33,0.00,SCT,SCT,0.00,988.0,WeatherDisplay:10.37,2013-09-05 18:12:00,
2013-09-05 12:17:00,87.4,56.4,29.77,SSE,148,0.9,3.4,35,0.00,SCT,SCT,0.00,958.0,WeatherDisplay:10.37,2013-09-05 18:17:00,
2013-09-05 12:22:00,87.8,55.9,29.77,SSE,161,2.2,3.4,34,0.00,SCT,SCT,0.00,905.0,WeatherDisplay:10.37,2013-09-05 18:22:00,
2013-09-05 12:27:00,87.6,57.3,29.76,SSE,163,0.1,1.1,36,0.00,SCT,SCT,0.00,888.0,WeatherDisplay:10.37,2013-09-05 18:27:00,
2013-09-05 12:32:00,88.3,58.0,29.76,SSE,162,0.2,1.1,36,0.00,SCT,SCT,0.00,863.0,WeatherDisplay:10.37,2013-09-05 18:32:00,
2013-09-05 12:37:00,88.7,56.7,29.76,SSE,167,0.4,2.3,34,0.00,SCT,SCT,0.00,860.0,WeatherDisplay:10.37,2013-09-05 18:37:00,
2013-09-05 12:42:00,89.5,55.7,29.75,SSE,161,3.4,4.6,32,0.00,SCT,SCT,0.00,860.0,WeatherDisplay:10.37,2013-09-05 18:42:00,
2013-09-05 12:47:00,89.3,55.6,29.76,SSE,161,0.1,1.1,32,0.00,SCT,SCT,0.00,861.0,WeatherDisplay:10.37,2013-09-05 18:47:00,
2013-09-05 12:52:00,89.6,55.8,29.75,SSW,200,0.0,1.1,32,0.00,SCT,SCT,0.00,863.0,WeatherDisplay:10.37,2013-09-05 18:52:00,
2013-09-05 12:57:00,89.9,55.2,29.75,SSW,203,0.1,2.3,31,0.00,SCT,SCT,0.00,863.0,WeatherDisplay:10.37,2013-09-05 18:57:00,
2013-09-05 13:02:00,89.8,59.3,29.74,SW,214,0.7,3.4,36,0.00,SCT,SCT,0.00,861.0,WeatherDisplay:10.37,2013-09-05 19:02:00,
2013-09-05 13:07:00,90.5,58.3,29.74,SW,217,0.8,3.4,34,0.00,SCT,SCT,0.00,858.0,WeatherDisplay:10.37,2013-09-05 19:07:00,
2013-09-05 13:12:00,91.2,58.9,29.75,NNE,32,0.1,1.1,34,0.00,SCT,SCT,0.00,856.0,WeatherDisplay:10.37,2013-09-05 19:12:00,
2013-09-05 13:17:00,91.1,59.6,29.74,ENE,74,0.9,2.3,35,0.00,SCT,SCT,0.00,854.0,WeatherDisplay:10.37,2013-09-05 19:17:00,
2013-09-05 13:22:00,91.3,58.2,29.74,ENE,64,1.7,5.0,33,0.00,SCT,SCT,0.00,854.0,WeatherDisplay:10.37,2013-09-05 19:22:00,
2013-09-05 13:27:00,91.4,57.4,29.74,NNE,23,4.4,6.9,32,0.00,SCT,SCT,0.00,853.0,WeatherDisplay:10.37,2013-09-05 19:27:00,
2013-09-05 13:32:00,91.4,57.4,29.74,NNE,32,1.6,4.6,32,0.00,SCT,SCT,0.00,847.0,WeatherDisplay:10.37,2013-09-05 19:32:00,
2013-09-05 13:37:00,91.8,57.7,29.72,East,96,0.8,3.4,32,0.00,SCT,SCT,0.00,849.0,WeatherDisplay:10.37,2013-09-05 19:37:00,
2013-09-05 13:42:00,92.6,57.6,29.72,East,97,0.1,1.1,31,0.00,SCT,SCT,0.00,846.0,WeatherDisplay:10.37,2013-09-05 19:42:00,
2013-09-05 13:47:00,93.1,58.9,29.72,East,96,0.0,1.1,32,0.00,SCT,SCT,0.00,844.0,WeatherDisplay:10.37,2013-09-05 19:47:00,
2013-09-05 13:52:00,93.0,57.9,29.72,NNE,18,0.6,3.4,31,0.00,SCT,SCT,0.00,840.0,WeatherDisplay:10.37,2013-09-05 19:52:00,
2013-09-05 13:57:00,93.2,57.2,29.72,ENE,57,1.1,3.4,30,0.00,SCT,SCT,0.00,833.0,WeatherDisplay:10.37,2013-09-05 19:57:00,
2013-09-05 14:02:00,93.6,59.3,29.70,NE,53,1.3,6.0,32,0.00,SCT,SCT,0.00,837.0,WeatherDisplay:10.37,2013-09-05 20:02:00,
2013-09-05 14:07:00,93.9,56.8,29.71,North,360,2.4,6.9,29,0.00,SCT,SCT,0.00,842.0,WeatherDisplay:10.37,2013-09-05 20:07:00,
2013-09-05 14:12:00,94.2,56.1,29.71,North,5,4.2,10.0,28,0.00,SCT,SCT,0.00,893.0,WeatherDisplay:10.37,2013-09-05 20:12:00,
2013-09-05 14:17:00,94.4,57.2,29.70,NNE,14,0.1,1.1,29,0.00,SCT,SCT,0.00,937.0,WeatherDisplay:10.37,2013-09-05 20:17:00,
2013-09-05 14:22:00,94.5,56.4,29.71,North,10,3.7,5.8,28,0.00,SCT,SCT,0.00,1004.0,WeatherDisplay:10.37,2013-09-05 20:22:00,
2013-09-05 14:27:00,94.7,56.5,29.70,NNE,29,2.9,5.8,28,0.00,SCT,SCT,0.00,1063.0,WeatherDisplay:10.37,2013-09-05 20:27:00,
2013-09-05 14:32:00,95.0,56.8,29.70,NE,37,1.8,8.1,28,0.00,SCT,SCT,0.00,445.0,WeatherDisplay:10.37,2013-09-05 20:32:00,
2013-09-05 14:37:00,94.9,55.7,29.70,NNE,30,0.6,2.3,27,0.00,SCT,SCT,0.00,568.0,WeatherDisplay:10.37,2013-09-05 20:37:00,
2013-09-05 14:42:00,94.7,57.5,29.70,NNE,30,0.8,3.4,29,0.00,SCT,SCT,0.00,1042.0,WeatherDisplay:10.37,2013-09-05 20:42:00,
2013-09-05 14:47:00,95.0,57.8,29.70,NE,34,0.8,3.4,29,0.00,SCT,SCT,0.00,290.0,WeatherDisplay:10.37,2013-09-05 20:47:00,
2013-09-05 14:52:00,94.7,56.5,29.69,NNE,15,0.3,2.3,28,0.00,SCT,SCT,0.00,281.0,WeatherDisplay:10.37,2013-09-05 20:52:00,
2013-09-05 14:57:00,94.0,56.9,29.69,NNE,13,0.6,2.3,29,0.00,SCT,SCT,0.00,260.0,WeatherDisplay:10.37,2013-09-05 20:57:00,
2013-09-05 15:02:00,93.4,56.4,29.70,North,10,0.3,2.3,29,0.00,SCT,SCT,0.00,288.0,WeatherDisplay:10.37,2013-09-05 21:02:00,
2013-09-05 15:07:00,92.7,56.7,29.69,NNE,18,0.1,1.1,30,0.00,SCT,SCT,0.00,373.0,WeatherDisplay:10.37,2013-09-05 21:07:00,
2013-09-05 15:12:00,92.3,55.4,29.70,NNE,23,1.5,4.6,29,0.00,SCT,SCT,0.00,828.0,WeatherDisplay:10.37,2013-09-05 21:12:00,
2013-09-05 15:17:00,92.8,55.9,29.69,NNE,17,0.0,3.4,29,0.00,SCT,SCT,0.00,791.0,WeatherDisplay:10.37,2013-09-05 21:17:00,
2013-09-05 15:22:00,93.8,55.8,29.69,NE,36,2.5,5.8,28,0.00,SCT,SCT,0.00,673.0,WeatherDisplay:10.37,2013-09-05 21:22:00,
2013-09-05 15:27:00,94.2,56.1,29.69,NNE,31,0.5,3.4,28,0.00,SCT,SCT,0.00,788.0,WeatherDisplay:10.37,2013-09-05 21:27:00,
2013-09-05 15:32:00,94.4,55.3,29.69,NNE,15,2.6,3.4,27,0.00,SCT,SCT,0.00,715.0,WeatherDisplay:10.37,2013-09-05 21:32:00,
2013-09-05 15:37:00,94.6,55.4,29.68,NE,46,5.4,9.2,27,0.00,SCT,SCT,0.00,745.0,WeatherDisplay:10.37,2013-09-05 21:37:00,
2013-09-05 15:42:00,94.6,53.3,29.68,NE,37,4.4,9.2,25,0.00,SCT,SCT,0.00,707.0,WeatherDisplay:10.37,2013-09-05 21:42:00,
2013-09-05 15:47:00,94.7,54.5,29.68,NE,34,4.4,6.9,26,0.00,SCT,SCT,0.00,710.0,WeatherDisplay:10.37,2013-09-05 21:47:00,
2013-09-05 15:52:00,95.1,54.8,29.68,East,80,1.2,2.3,26,0.00,SCT,SCT,0.00,696.0,WeatherDisplay:10.37,2013-09-05 21:52:00,
2013-09-05 15:57:00,95.3,53.9,29.68,NE,38,1.7,4.6,25,0.00,SCT,SCT,0.00,650.0,WeatherDisplay:10.37,2013-09-05 21:57:00,
2013-09-05 16:02:00,95.4,55.1,29.68,NE,51,0.4,2.3,26,0.00,SCT,SCT,0.00,643.0,WeatherDisplay:10.37,2013-09-05 22:02:00,
2013-09-05 16:07:00,95.6,55.2,29.69,NE,51,2.6,4.6,26,0.00,SCT,SCT,0.00,640.0,WeatherDisplay:10.37,2013-09-05 22:07:00,
2013-09-05 16:12:00,95.6,54.2,29.69,NE,43,1.3,5.0,25,0.00,SCT,SCT,0.00,661.0,WeatherDisplay:10.37,2013-09-05 22:12:00,
2013-09-05 16:17:00,95.7,55.3,29.68,NE,48,0.2,3.4,26,0.00,SCT,SCT,0.00,656.0,WeatherDisplay:10.37,2013-09-05 22:17:00,
2013-09-05 16:22:00,96.0,53.4,29.69,ENE,68,4.0,9.2,24,0.00,SCT,SCT,0.00,649.0,WeatherDisplay:10.37,2013-09-05 22:22:00,
2013-09-05 16:27:00,95.9,53.3,29.69,East,83,1.4,3.4,24,0.00,SCT,SCT,0.00,647.0,WeatherDisplay:10.37,2013-09-05 22:27:00,
2013-09-05 16:32:00,95.8,55.4,29.69,ENE,72,1.9,5.8,26,0.00,SCT,SCT,0.00,642.0,WeatherDisplay:10.37,2013-09-05 22:32:00,
2013-09-05 16:37:00,95.9,54.4,29.69,East,88,2.7,4.6,25,0.00,SCT,SCT,0.00,589.0,WeatherDisplay:10.37,2013-09-05 22:37:00,
2013-09-05 16:42:00,96.0,53.4,29.68,ENE,60,1.7,5.0,24,0.00,SCT,SCT,0.00,568.0,WeatherDisplay:10.37,2013-09-05 22:42:00,
2013-09-05 16:47:00,95.8,53.2,29.68,NE,53,2.4,10.3,24,0.00,SCT,SCT,0.00,582.0,WeatherDisplay:10.37,2013-09-05 22:47:00,
2013-09-05 16:52:00,95.7,54.3,29.69,ENE,59,2.9,7.0,25,0.00,SCT,SCT,0.00,548.0,WeatherDisplay:10.37,2013-09-05 22:52:00,
2013-09-05 16:57:00,95.4,52.9,29.68,SSE,154,7.0,11.5,24,0.00,SCT,SCT,0.00,185.0,WeatherDisplay:10.37,2013-09-05 22:57:00,
2013-09-05 17:02:00,94.5,53.2,29.68,SE,132,8.7,13.8,25,0.00,SCT,SCT,0.00,504.0,WeatherDisplay:10.37,2013-09-05 23:02:00,
2013-09-05 17:07:00,93.7,52.6,29.70,SSE,163,10.3,14.9,25,0.00,SCT,SCT,0.00,181.0,WeatherDisplay:10.37,2013-09-05 23:07:00,
2013-09-05 17:12:00,92.7,51.7,29.72,SE,137,6.5,11.5,25,0.00,SCT,SCT,0.00,169.0,WeatherDisplay:10.37,2013-09-05 23:12:00,
2013-09-05 17:17:00,91.8,52.0,29.72,SSE,148,5.5,10.3,26,0.00,SCT,SCT,0.00,153.0,WeatherDisplay:10.37,2013-09-05 23:17:00,
2013-09-05 17:22:00,90.9,53.3,29.72,SE,138,7.5,12.6,28,0.00,SCT,SCT,0.00,171.0,WeatherDisplay:10.37,2013-09-05 23:22:00,
2013-09-05 17:27:00,90.0,53.5,29.72,SE,134,6.5,10.3,29,0.00,SCT,SCT,0.00,146.0,WeatherDisplay:10.37,2013-09-05 23:27:00,
2013-09-05 17:32:00,89.4,53.9,29.73,SE,144,1.2,3.4,30,0.00,SCT,SCT,0.00,134.0,WeatherDisplay:10.37,2013-09-05 23:32:00,
2013-09-05 17:37:00,89.1,53.6,29.73,SE,144,0.1,1.1,30,0.00,SCT,SCT,0.00,127.0,WeatherDisplay:10.37,2013-09-05 23:37:00,
2013-09-05 17:42:00,89.0,53.5,29.73,SE,144,0.0,0.0,30,0.00,SCT,SCT,0.00,116.0,WeatherDisplay:10.37,2013-09-05 23:42:00,
2013-09-05 17:47:00,88.9,56.1,29.73,SE,144,0.0,0.0,33,0.00,SCT,SCT,0.00,102.0,WeatherDisplay:10.37,2013-09-05 23:47:00,
2013-09-05 17:52:00,88.7,52.4,29.73,East,93,2.3,5.8,29,0.00,SCT,SCT,0.00,105.0,WeatherDisplay:10.37,2013-09-05 23:52:00,
2013-09-05 17:57:00,88.4,51.1,29.74,SE,145,2.7,4.6,28,0.00,SCT,SCT,0.00,67.0,WeatherDisplay:10.37,2013-09-05 23:57:00,
2013-09-05 18:02:00,88.2,51.9,29.74,SSE,163,3.1,4.6,29,0.00,SCT,SCT,0.00,46.0,WeatherDisplay:10.37,2013-09-06 00:02:00,
2013-09-05 18:07:00,88.1,51.8,29.75,SSE,162,0.0,0.0,29,0.00,SCT,SCT,0.00,32.0,WeatherDisplay:10.37,2013-09-06 00:07:00,
2013-09-05 18:12:00,87.9,52.6,29.74,SSE,161,0.0,0.0,30,0.00,SCT,SCT,0.00,26.0,WeatherDisplay:10.37,2013-09-06 00:12:00,
2013-09-05 18:17:00,87.8,53.4,29.74,SSE,162,0.0,0.0,31,0.00,SCT,SCT,0.00,21.0,WeatherDisplay:10.37,2013-09-06 00:17:00,
2013-09-05 18:22:00,87.7,53.3,29.74,SSE,162,0.0,0.0,31,0.00,SCT,SCT,0.00,16.0,WeatherDisplay:10.37,2013-09-06 00:22:00,
2013-09-05 18:27:00,87.6,54.1,29.74,SSE,162,0.0,0.0,32,0.00,SCT,SCT,0.00,12.0,WeatherDisplay:10.37,2013-09-06 00:27:00,
2013-09-05 18:32:00,87.4,53.1,29.75,SSE,162,0.0,0.0,31,0.00,SCT,SCT,0.00,11.0,WeatherDisplay:10.37,2013-09-06 00:32:00,
2013-09-05 18:37:00,87.2,53.7,29.75,SSE,161,0.0,0.0,32,0.00,SCT,SCT,0.00,9.0,WeatherDisplay:10.37,2013-09-06 00:37:00,
2013-09-05 18:42:00,87.0,53.6,29.75,SSE,155,0.3,2.3,32,0.00,SCT,SCT,0.00,7.0,WeatherDisplay:10.37,2013-09-06 00:42:00,
2013-09-05 18:47:00,86.6,52.4,29.76,WSW,256,1.0,4.6,31,0.00,SCT,SCT,0.00,5.0,WeatherDisplay:10.37,2013-09-06 00:47:00,
2013-09-05 18:52:00,86.4,53.1,29.77,NNW,333,0.2,3.0,32,0.00,SCT,SCT,0.00,5.0,WeatherDisplay:10.37,2013-09-06 00:52:00,
2013-09-05 18:57:00,86.0,52.7,29.78,NW,321,0.8,3.4,32,0.00,SCT,SCT,0.00,0.0,WeatherDisplay:10.37,2013-09-06 00:57:00,
2013-09-05 19:02:00,85.7,53.3,29.77,West,263,2.4,5.0,33,0.00,SCT,SCT,0.00,0.0,WeatherDisplay:10.37,2013-09-06 01:02:00,
2013-09-05 19:07:00,85.3,52.9,29.77,NNE,33,4.2,4.6,33,0.00,SCT,SCT,0.00,0.0,WeatherDisplay:10.37,2013-09-06 01:07:00,
2013-09-05 19:12:00,84.8,52.5,29.77,NNE,28,2.9,3.4,33,0.00,SCT,SCT,0.00,0.0,WeatherDisplay:10.37,2013-09-06 01:12:00,
2013-09-05 19:17:00,84.4,53.0,29.78,NE,34,0.2,2.3,34,0.00,SCT,SCT,0.00,0.0,WeatherDisplay:10.37,2013-09-06 01:17:00,
2013-09-05 19:22:00,84.1,52.7,29.78,ENE,57,1.6,5.8,34,0.00,SCT,SCT,0.00,0.0,WeatherDisplay:10.37,2013-09-06 01:22:00,
2013-09-05 19:27:00,83.9,51.7,29.78,NNE,33,5.7,10.3,33,0.00,SCT,SCT,0.00,0.0,WeatherDisplay:10.37,2013-09-06 01:27:00,
2013-09-05 19:32:00,83.8,52.4,29.78,North,360,1.2,9.0,34,0.00,SCT,SCT,0.00,0.0,WeatherDisplay:10.37,2013-09-06 01:32:00,
2013-09-05 19:37:00,83.8,50.8,29.78,NNE,26,0.5,2.3,32,0.00,SCT,SCT,0.00,0.0,WeatherDisplay:10.37,2013-09-06 01:37:00,
2013-09-05 19:42:00,83.8,49.9,29.78,NE,36,1.7,3.4,31,0.00,SCT,SCT,0.00,0.0,WeatherDisplay:10.37,2013-09-06 01:42:00,
2013-09-05 19:47:00,83.9,50.0,29.78,NE,36,0.0,1.1,31,0.00,SCT,SCT,0.00,0.0,WeatherDisplay:10.37,2013-09-06 01:47:00,
2013-09-05 19:52:00,83.9,50.9,29.78,NE,36,0.0,0.0,32,0.00,SCT,SCT,0.00,0.0,WeatherDisplay:10.37,2013-09-06 01:52:00,
2013-09-05 19:57:00,83.9,50.9,29.78,NE,36,0.0,1.0,32,0.00,SCT,SCT,0.00,0.0,WeatherDisplay:10.37,2013-09-06 01:57:00,
2013-09-05 20:02:00,83.8,50.8,29.79,NE,36,0.0,0.0,32,0.00,BKN,BKN,0.00,0.0,WeatherDisplay:10.37,2013-09-06 02:02:00,
2013-09-05 20:07:00,83.7,51.5,29.77,NE,36,0.0,1.1,33,0.00,BKN,BKN,0.00,0.0,WeatherDisplay:10.37,2013-09-06 02:07:00,
2013-09-05 20:12:00,83.6,52.3,29.77,NE,36,0.1,1.1,34,0.00,BKN,BKN,0.00,0.0,WeatherDisplay:10.37,2013-09-06 02:12:00,
2013-09-05 20:17:00,83.5,53.0,29.77,NE,36,0.1,1.1,35,0.00,BKN,BKN,0.00,0.0,WeatherDisplay:10.37,2013-09-06 02:17:00,
2013-09-05 20:22:00,83.2,53.5,29.78,NE,36,0.0,1.1,36,0.00,BKN,BKN,0.00,0.0,WeatherDisplay:10.37,2013-09-06 02:22:00,
2013-09-05 20:27:00,83.0,53.3,29.77,NE,36,0.0,1.1,36,0.00,BKN,BKN,0.00,0.0,WeatherDisplay:10.37,2013-09-06 02:27:00,
2013-09-05 20:32:00,82.8,53.9,29.78,NE,36,0.0,0.0,37,0.00,BKN,BKN,0.00,0.0,WeatherDisplay:10.37,2013-09-06 02:32:00,
2013-09-05 20:37:00,82.7,53.8,29.78,NE,36,0.0,1.0,37,0.00,BKN,BKN,0.00,0.0,WeatherDisplay:10.37,2013-09-06 02:37:00,
2013-09-05 20:42:00,82.4,53.5,29.79,NE,36,0.0,1.1,37,0.00,BKN,BKN,0.00,0.0,WeatherDisplay:10.37,2013-09-06 02:42:00,
2013-09-05 20:47:00,82.2,53.3,29.79,ENE,65,0.8,3.4,37,0.00,BKN,BKN,0.00,0.0,WeatherDisplay:10.37,2013-09-06 02:47:00,
2013-09-05 20:52:00,82.1,53.2,29.79,ENE,66,0.0,0.0,37,0.00,BKN,BKN,0.00,0.0,WeatherDisplay:10.37,2013-09-06 02:52:00,
2013-09-05 20:57:00,82.0,53.9,29.79,ENE,62,0.0,0.0,38,0.00,BKN,BKN,0.00,0.0,WeatherDisplay:10.37,2013-09-06 02:57:00,
2013-09-05 21:02:00,81.9,53.8,29.79,ENE,62,0.0,0.0,38,0.00,BKN,BKN,0.00,0.0,WeatherDisplay:10.37,2013-09-06 03:02:00,
2013-09-05 21:07:00,81.8,54.4,29.76,ENE,62,0.0,0.0,39,0.00,BKN,BKN,0.00,0.0,WeatherDisplay:10.37,2013-09-06 03:07:00,
2013-09-05 21:12:00,81.6,54.2,29.76,ENE,61,0.0,0.0,39,0.00,BKN,BKN,0.00,0.0,WeatherDisplay:10.37,2013-09-06 03:12:00,
2013-09-05 21:17:00,81.4,54.1,29.76,ENE,61,0.0,0.0,39,0.00,BKN,BKN,0.00,0.0,WeatherDisplay:10.37,2013-09-06 03:17:00,
2013-09-05 21:22:00,81.2,53.9,29.76,ENE,61,0.0,0.0,39,0.00,BKN,BKN,0.00,0.0,WeatherDisplay:10.37,2013-09-06 03:22:00,
2013-09-05 21:27:00,81.0,54.4,29.76,ENE,62,0.0,0.0,40,0.00,BKN,BKN,0.00,0.0,WeatherDisplay:10.37,2013-09-06 03:27:00,
2013-09-05 21:32:00,80.8,54.9,29.77,ENE,61,0.5,2.0,41,0.00,BKN,BKN,0.00,0.0,WeatherDisplay:10.37,2013-09-06 03:32:00,
2013-09-05 21:37:00,80.6,54.7,29.77,ENE,62,0.0,0.0,41,0.00,BKN,BKN,0.00,0.0,WeatherDisplay:10.37,2013-09-06 03:37:00,
2013-09-05 21:42:00,80.3,54.5,29.77,ENE,63,0.0,0.0,41,0.00,BKN,BKN,0.00,0.0,WeatherDisplay:10.37,2013-09-06 03:42:00,
2013-09-05 21:47:00,80.2,54.4,29.77,ENE,62,0.0,0.0,41,0.00,BKN,BKN,0.00,0.0,WeatherDisplay:10.37,2013-09-06 03:47:00,
2013-09-05 21:52:00,80.0,54.8,29.77,ENE,62,0.0,0.0,42,0.00,BKN,BKN,0.00,0.0,WeatherDisplay:10.37,2013-09-06 03:52:00,
2013-09-05 21:57:00,79.8,54.7,29.78,ENE,61,0.0,0.0,42,0.00,BKN,BKN,0.00,0.0,WeatherDisplay:10.37,2013-09-06 03:57:00,
2013-09-05 22:01:00,79.6,54.5,29.78,ENE,61,0.0,0.0,42,0.00,BKN,BKN,0.00,0.0,WeatherDisplay:10.37,2013-09-06 04:01:00,
2013-09-05 22:06:00,79.3,54.9,29.75,ENE,62,0.0,0.0,43,0.00,BKN,BKN,0.00,0.0,WeatherDisplay:10.37,2013-09-06 04:06:00,
2013-09-05 22:11:00,79.1,54.7,29.75,ENE,63,0.0,0.0,43,0.00,BKN,BKN,0.00,0.0,WeatherDisplay:10.37,2013-09-06 04:11:00,
2013-09-05 22:16:00,78.8,54.4,29.75,ENE,63,1.2,3.4,43,0.00,BKN,BKN,0.00,0.0,WeatherDisplay:10.37,2013-09-06 04:16:00,
2013-09-05 22:21:00,78.7,55.0,29.75,ENE,62,0.0,0.0,44,0.00,BKN,BKN,0.00,0.0,WeatherDisplay:10.37,2013-09-06 04:21:00,
2013-09-05 22:26:00,78.5,54.8,29.75,ENE,62,0.0,0.0,44,0.00,BKN,BKN,0.00,0.0,WeatherDisplay:10.37,2013-09-06 04:26:00,
2013-09-05 22:31:00,78.3,54.6,29.75,ENE,62,0.0,0.0,44,0.00,BKN,BKN,0.00,0.0,WeatherDisplay:10.37,2013-09-06 04:31:00,
2013-09-05 22:36:00,78.1,54.4,29.75,ENE,63,0.0,0.0,44,0.00,BKN,BKN,0.00,0.0,WeatherDisplay:10.37,2013-09-06 04:36:00,
2013-09-05 22:41:00,77.9,54.2,29.75,ENE,62,0.0,0.0,44,0.00,BKN,BKN,0.00,0.0,WeatherDisplay:10.37,2013-09-06 04:41:00,
2013-09-05 22:46:00,77.6,54.6,29.75,ENE,61,0.0,0.0,45,0.00,BKN,BKN,0.00,0.0,WeatherDisplay:10.37,2013-09-06 04:46:00,
2013-09-05 22:51:00,77.5,55.1,29.75,ENE,62,0.0,0.0,46,0.00,BKN,BKN,0.00,0.0,WeatherDisplay:10.37,2013-09-06 04:51:00,
2013-09-05 22:56:00,77.3,54.9,29.75,ENE,62,0.1,0.0,46,0.00,BKN,BKN,0.00,0.0,WeatherDisplay:10.37,2013-09-06 04:56:00,
2013-09-05 23:01:00,77.0,54.6,29.75,ENE,61,1.8,2.3,46,0.00,BKN,BKN,0.00,0.0,WeatherDisplay:10.37,2013-09-06 05:01:00,
2013-09-05 23:06:00,76.7,54.4,29.71,South,188,0.1,1.1,46,0.00,BKN,BKN,0.00,0.0,WeatherDisplay:10.37,2013-09-06 05:06:00,
2013-09-05 23:11:00,76.4,54.1,29.72,South,188,1.2,3.4,46,0.00,BKN,BKN,0.00,0.0,WeatherDisplay:10.37,2013-09-06 05:11:00,
2013-09-05 23:16:00,76.2,53.9,29.72,South,189,0.5,1.1,46,0.00,BKN,BKN,0.00,0.0,WeatherDisplay:10.37,2013-09-06 05:16:00,
2013-09-05 23:21:00,76.1,54.4,29.72,South,189,0.1,0.0,47,0.00,BKN,BKN,0.00,0.0,WeatherDisplay:10.37,2013-09-06 05:21:00,
2013-09-05 23:26:00,75.9,54.8,29.72,South,188,0.0,0.0,48,0.00,BKN,BKN,0.00,0.0,WeatherDisplay:10.37,2013-09-06 05:26:00,
2013-09-05 23:31:00,75.7,54.0,29.71,South,189,0.0,0.0,47,0.00,BKN,BKN,0.00,0.0,WeatherDisplay:10.37,2013-09-06 05:31:00,
2013-09-05 23:36:00,75.5,53.9,29.71,South,182,0.0,3.4,47,0.00,BKN,BKN,0.00,0.0,WeatherDisplay:10.37,2013-09-06 05:36:00,
2013-09-05 23:41:00,75.3,53.1,29.71,South,182,1.7,3.4,46,0.00,BKN,BKN,0.00,0.0,WeatherDisplay:10.37,2013-09-06 05:41:00,
2013-09-05 23:46:00,75.2,52.4,29.71,South,183,1.2,3.4,45,0.00,BKN,BKN,0.00,0.0,WeatherDisplay:10.37,2013-09-06 05:46:00,
2013-09-05 23:51:00,75.1,52.9,29.71,South,183,0.1,2.3,46,0.00,BKN,BKN,0.00,0.0,WeatherDisplay:10.37,2013-09-06 05:51:00,
2013-09-05 23:56:00,75.1,52.9,29.71,South,183,0.6,2.0,46,0.00,BKN,BKN,0.00,0.0,WeatherDisplay:10.37,2013-09-06 05:56:00,